[[{"header":{"parameterUnit":"m.s-1","parameterCategory":1,"la1":30.2992,"la2":30.254,"lo1":-89.0895,"lo2":-89.0443,"dy":0.0025,"dx":0.0025,"nx":19,"ny":19,"refTime":"2026-03-25T03:00:00:Z","depth":0,"parameterNumber":2,"parameterNumberName":"U-component_of_WINDS"},"data":[0,0,0,0.3056,0.3057,0.3158,0.3159,0.327,0.3271,0,0,0,0,0,0,0,0,0,0,0,0.3016,0.3016,0.3055,0.3058,0.3158,0.3159,0.327,0.3271,0,0,0,0,0,0,0,0,0,0,0,0.3016,0.3016,0.3017,0.3058,0.3158,0.3159,0.327,0.32,0,0,0,0,0,0,0,0,0,0,0.3105,0.3059,0.3016,0.3017,0.3059,0.3158,0.3159,0.3197,0.3204,0.3217,0,0.3227,0,0.325,0.3277,0.3278,0,0,0,0.3065,0.3053,0.3089,0.3017,0.3059,0.3158,0.3115,0.3201,0.321,0.3227,0.3229,0.3233,0.3252,0.3278,0.3278,0.3327,0.3327,0,0,0.3059,0.3029,0.3083,0.3094,0.3078,0.3112,0.3118,0.3207,0.3206,0.3229,0.3236,0.3254,0.3279,0.3279,0.3327,0.3327,0,0,0,0.3038,0.3025,0.3059,0.3089,0.3108,0.3114,0.3122,0.3202,0.3216,0.3237,0.3255,0.3279,0.328,0.3328,0.3327,0.329,0,0,0,0.3035,0.3013,0.3056,0.3038,0.3106,0.3157,0.3115,0.321,0.3221,0.3255,0.3279,0.3281,0.3328,0.3327,0.3292,0.3278,0,0,0,0.3013,0.301,0.3021,0.3037,0.3079,0.3156,0.3175,0.3213,0.3231,0.3278,0.3282,0.3328,0.3327,0.3293,0.328,0.328,0,0,0,0.298,0.2989,0.302,0.3038,0.3078,0.3133,0.3175,0.3218,0.3253,0.328,0.3328,0.3327,0.3293,0.3282,0.3281,0.3273,0.3267,0,0,0.2975,0.2988,0.3,0.3031,0.3072,0.312,0.3156,0.3218,0.3251,0.3299,0.3301,0.3291,0.328,0.328,0.3248,0.3243,0,0,0,0.2988,0.2996,0.3014,0.3046,0.3092,0.313,0.3189,0.3211,0.3254,0.327,0.3293,0.3287,0.3288,0.3286,0.3282,0.3283,0.3325,0.3325,0.3325,0.2938,0.2977,0.2999,0.305,0.308,0.3139,0.3166,0.3206,0.3239,0.3243,0.3258,0.3234,0.323,0.3227,0.3228,0.3258,0.3258,0.3258,0.3258,0.2933,0.295,0.299,0.3026,0.3066,0.3097,0.3152,0.3174,0.3207,0.3227,0.323,0.3248,0.3221,0.3223,0.3256,0.3256,0.3256,0.3257,0.3257,0.2904,0.2918,0.2944,0.2991,0.3022,0.3073,0.3101,0.3138,0.3173,0.3176,0.3194,0.3194,0.3198,0.3182,0.3182,0.3182,0.3182,0.3182,0.3182,0.2863,0.2893,0.2913,0.2959,0.2982,0.3017,0.3073,0.3097,0.3132,0.3156,0.3156,0.3186,0.3211,0.3215,0.318,0.3181,0.3181,0.3181,0.3181,0.2842,0.2851,0.2881,0.2904,0.296,0.2986,0.3032,0.3075,0.3099,0.3111,0.314,0.3153,0.3169,0.3173,0.3176,0.3133,0.3133,0.3133,0.3133,0.2816,0.2827,0.2864,0.2897,0.2933,0.2976,0.3005,0.3047,0.3092,0.3109,0.3121,0.3129,0.3131,0.3146,0.315,0.3154,0.3106,0.3106,0.3106,0.2804,0.2819,0.2838,0.2882,0.2927,0.2964,0.2992,0.3026,0.308,0.3106,0.3122,0.3123,0.3137,0.314,0.3167,0.3173,0.3181,0,0]},{"header":{"parameterUnit":"m.s-1","parameterCategory":1,"la1":30.2992,"la2":30.254,"lo1":-89.0895,"lo2":-89.0443,"dy":0.0025,"dx":0.0025,"nx":19,"ny":19,"refTime":"2026-03-25T03:00:00:Z","depth":0,"parameterNumber":3,"parameterNumberName":"V-component_of_WINDS"},"data":[0,0,0,3.1236,3.1236,3.1234,3.1234,3.1227,3.1227,0,0,0,0,0,0,0,0,0,0,0,3.1235,3.1235,3.1236,3.1236,3.1234,3.1234,3.1227,3.1227,0,0,0,0,0,0,0,0,0,0,0,3.1235,3.1235,3.1235,3.1236,3.1234,3.1234,3.1227,3.123,0,0,0,0,0,0,0,0,0,0,3.1232,3.1231,3.1235,3.1235,3.1236,3.1234,3.1234,3.123,3.123,3.1226,0,3.1225,0,3.1226,3.1227,3.1227,0,0,0,3.1236,3.1231,3.1232,3.1235,3.1236,3.1234,3.1235,3.123,3.1229,3.1226,3.1225,3.1225,3.1226,3.1227,3.1227,3.1209,3.1209,0,0,3.1236,3.1234,3.1232,3.1232,3.1234,3.1235,3.1235,3.123,3.1228,3.1225,3.1225,3.1226,3.1227,3.1227,3.1209,3.1209,0,0,0,3.1236,3.1234,3.1235,3.1232,3.1232,3.1235,3.1235,3.1228,3.1229,3.1225,3.1226,3.1227,3.1226,3.1209,3.1209,3.1202,0,0,0,3.1236,3.1234,3.1235,3.1234,3.1232,3.1231,3.1234,3.1229,3.1229,3.1226,3.1227,3.1226,3.1209,3.1209,3.1202,3.1198,0,0,0,3.1235,3.1234,3.1234,3.1234,3.1233,3.1231,3.1231,3.1229,3.1229,3.1227,3.1226,3.1209,3.1209,3.1202,3.1199,3.1191,0,0,0,3.1234,3.1228,3.1234,3.1227,3.1233,3.1227,3.1231,3.1226,3.1223,3.1226,3.1209,3.1209,3.1203,3.1199,3.1192,3.1184,3.1181,0,0,3.1225,3.1227,3.1223,3.1228,3.122,3.1227,3.1218,3.1217,3.1218,3.1211,3.1211,3.1202,3.1199,3.1192,3.1167,3.1165,0,0,0,3.122,3.1217,3.1215,3.1213,3.1212,3.1209,3.121,3.1209,3.1203,3.1215,3.1198,3.1196,3.1192,3.1188,3.1186,3.1181,3.1207,3.1208,3.1208,3.1205,3.1206,3.1199,3.12,3.1197,3.1196,3.1193,3.1191,3.1194,3.1189,3.1187,3.1172,3.1168,3.1167,3.1162,3.1184,3.1184,3.1184,3.1184,3.1191,3.1187,3.1189,3.1183,3.1183,3.1177,3.1174,3.1176,3.1169,3.1175,3.1171,3.1177,3.1164,3.1159,3.1184,3.1184,3.1184,3.1184,3.1184,3.1181,3.1179,3.1178,3.1172,3.1167,3.1167,3.1159,3.116,3.116,3.1156,3.1152,3.1152,3.1151,3.1154,3.1154,3.1154,3.1154,3.1154,3.1154,3.1171,3.117,3.1165,3.1161,3.1158,3.1153,3.115,3.1146,3.1141,3.1141,3.1141,3.1143,3.1163,3.1168,3.1153,3.1154,3.1154,3.1154,3.1154,3.1156,3.1159,3.1151,3.1147,3.1141,3.1133,3.1134,3.1124,3.1121,3.1116,3.1117,3.1133,3.1135,3.1136,3.114,3.1119,3.1119,3.1119,3.1119,3.1147,3.1148,3.1137,3.1131,3.1125,3.1123,3.1109,3.1104,3.11,3.1097,3.11,3.1105,3.1107,3.1107,3.1109,3.1112,3.1085,3.1085,3.1085,3.1137,3.1136,3.1126,3.1123,3.1117,3.1111,3.1097,3.1087,3.1082,3.1084,3.1094,3.1095,3.1103,3.1106,3.1108,3.1112,3.1118,0,0]}]]